Вернуться в каталог

CZ-3B R/B

АктивенGTO
NORAD 49331·ROCKET BODY·🇨🇳 China

Запущен Oct 24, 2021 с Xichang Satellite Launch Center

Loading…

TLE

УстаревшееSource: Space-Track

Эпоха: Sep 13, 2026, 15:07 UTC

1 49331U 21094B   26256.63052351  .00000944  00000-0  78499-3 0  9999
2 49331  28.3011  83.5512 7113470 221.0808  54.8316  2.45419479 42632

Отслеживайте CZ-3B R/B в реальном времени с AllMySat

Download on the App Store